Location: Unnamed
(42.1164°N, 2.7652°E)
Time: 20:23:25
(UTC+02:00)

ISS - Pass Details

Date: 15 May 2021
Orbit: 417 x 422 km, 51.6° (Epoch: 14 June)

Event Time Altitude Azimuth Distance (km) Brightness Sun altitude
Rises 00:22:48 0° 267° (W) 2,360 0.3 -26.1°
Reaches altitude 10° 00:25:07 10° 281° (W) 1,500 -0.6 -26.3°
Maximum altitude 00:28:01 26° 340° (NNW) 871 -1.5 -26.5°
Drops below altitude 10° 00:30:55 10° 39° (NE) 1,506 -0.6 -26.6°
Sets 00:33:15 0° 53° (NE) 2,374 0.3 -26.8°
